[[[{"header":{"parameterUnit":"kt","parameterCategory":2,"dx":1,"dy":1,"la1":30.253999710083008,"la2":30.299108505249023,"lo1":-89.0895004272461,"lo2":-89.04439544677734,"nx":28,"ny":28,"refTime":"2022-09-28T21:00:00:Z","depth":0,"parameterNumber":1,"parameterNumberName":"U-component_of_WINDS"},"data":[-5.9053,-5.9205,-5.9177,-5.9336,-5.9337,-5.9441,-5.9469,-5.9501,-5.952,-5.964,-5.9703,-5.9689,-5.9695,-5.9763,-5.983,-5.9821,-5.9852,-5.9926,-5.9904,-5.9598,-5.9554,-5.9511,-5.9474,-5.9933,-5.9934,-6.0225,-6.0228,-6.023,-5.8828,-5.8831,-5.8907,-5.8962,-5.9027,-5.8937,-5.8973,-5.9033,-5.9128,-5.9152,-5.9213,-5.9316,-5.9394,-5.9374,-5.9443,-5.9512,-5.9474,-5.9533,-5.9528,-5.953,-5.9202,-5.9162,-5.9563,-5.9563,-5.9563,-5.9563,-5.9562,-5.9562,-5.841,-5.8503,-5.8519,-5.8602,-5.8621,-5.8658,-5.8741,-5.8721,-5.8795,-5.8865,-5.8815,-5.8923,-5.8941,-5.901,-5.9026,-5.9107,-5.9037,-5.9092,-5.9106,-5.9121,-5.9142,-5.8725,-5.9118,-5.9116,-5.9115,-5.9114,-5.9113,0,-5.8096,-5.8065,-5.8137,-5.82,-5.8259,-5.8305,-5.8342,-5.8393,-5.8317,-5.8382,-5.8472,-5.852,-5.8612,-5.8694,-5.8752,-5.8757,-5.8671,-5.8659,-5.8697,-5.8723,-5.8739,-5.8732,-5.8198,-5.8648,-5.8644,-5.8641,-5.8639,-5.8637,-5.7673,-5.7785,-5.7788,-5.7842,-5.7855,-5.7944,-5.7991,-5.7916,-5.7969,-5.8003,-5.8088,-5.8169,-5.823,-5.838,-5.8356,-5.8425,-5.8384,-5.8559,-5.8394,-5.8414,-5.8387,-5.8382,-5.8392,-5.8593,-5.8599,-5.8604,-5.8607,0,-5.7437,-5.7389,-5.7553,-5.7545,-5.7546,-5.7667,-5.7659,-5.7749,-5.7719,-5.7839,-5.7862,-5.7817,-5.7908,-5.7854,-5.7947,-5.7917,-5.8114,-5.8072,-5.8106,-5.8095,-5.8247,-5.8234,-5.8748,-5.8811,-5.8333,-5.8337,-5.8341,0,-5.7057,-5.7208,-5.7127,-5.7225,-5.7389,-5.7309,-5.7473,-5.7465,-5.7479,-5.7572,-5.7465,-5.7555,-5.7473,-5.7555,-5.751,-5.7661,-5.7679,-5.7664,-5.7651,-5.7675,-5.7677,-5.7703,-5.7682,-5.7616,-5.7613,-5.7611,-5.7609,0,-5.6695,-5.6828,-5.6986,-5.7009,-5.7015,-5.7092,-5.7098,-5.7113,-5.7161,-5.7212,-5.7242,-5.7309,-5.7346,-5.7398,-5.7341,-5.7231,-5.7525,-5.7361,-5.751,-5.7512,-5.758,-5.7577,-5.8043,-5.7606,-5.7605,-5.7604,-5.7603,0,-5.6381,-5.6436,-5.6674,-5.6675,-5.6714,-5.6819,-5.6878,-5.6956,-5.698,-5.6959,-5.6999,-5.6922,-5.705,-5.6892,-5.7067,-5.694,-5.6982,-5.698,-5.699,-5.6999,-5.6824,-5.7096,-5.7545,-5.759,-5.7006,-5.7001,-5.6996,0,-5.5979,-5.6206,-5.6139,-5.6367,-5.6464,-5.6337,-5.6451,-5.6477,-5.6457,-5.6536,-5.6514,-5.6606,-5.6477,-5.6498,-5.6591,-5.6573,-5.6738,-5.6549,-5.6664,-5.6669,-5.6662,-5.7074,-5.7155,-5.7452,-5.6932,-5.6939,-5.6943,0,-5.5661,-5.5668,-5.5714,-5.5736,-5.5757,-5.5838,-5.597,-5.6043,-5.61,-5.614,-5.6248,-5.6376,-5.6283,-5.632,-5.6265,-5.6365,-5.6624,-5.6253,-5.6252,-5.6322,-5.6895,-5.6971,-5.7021,-5.6564,-5.6572,-5.6578,-5.6892,0,-5.5198,-5.5306,-5.5426,-5.5481,-5.5535,-5.5675,-5.5619,-5.5683,-5.5623,-5.56,-5.5759,-5.5767,-5.5842,-5.5885,-5.5829,-5.6076,-5.6026,-5.5927,-5.5771,-5.6042,-5.6144,-5.6186,-5.5623,-5.5618,-5.5614,-5.561,0,0,-5.4826,-5.4979,-5.4903,-5.5028,-5.5069,-5.4936,-5.5091,-5.5115,-5.5169,-5.5201,-5.5112,-5.5294,-5.5306,-5.5505,-5.5584,-5.5615,-5.5654,-5.5563,-5.5913,-5.5947,-5.5978,-5.6089,-5.6133,-5.5603,-5.5601,-5.56,-5.5599,0,-5.4646,-5.4659,-5.4813,-5.4835,-5.4864,-5.4832,-5.4869,-5.4875,-5.4868,-5.5023,-5.4912,-5.5,-5.515,-5.5175,-5.5208,-5.5536,-5.5448,-5.5563,-5.5759,-5.5873,-5.5913,-5.5947,-5.6064,-5.6107,-5.5588,-5.5589,-5.5589,0,-5.4323,-5.4327,-5.4396,-5.4483,-5.4502,-5.4606,-5.4427,-5.4546,-5.4622,-5.4472,-5.4628,-5.4626,-5.4656,-5.4852,-5.4938,-5.486,-5.5264,-5.5127,-5.5152,-5.5161,-5.5269,-5.5316,-5.5359,-5.4801,-5.4798,-5.4796,0,0,-5.4175,-5.4275,-5.4256,-5.4441,-5.446,-5.4415,-5.4465,-5.4411,-5.4441,-5.4454,-5.4449,-5.4482,-5.4567,-5.4625,-5.4702,-5.4925,-5.4925,-5.5032,-5.5069,-5.51,-5.5126,-5.5242,-5.5289,-5.4786,-5.4786,-5.4786,0,0,-5.4105,-5.409,-5.4025,-5.4232,-5.4264,-5.4259,-5.4373,-5.4294,-5.4358,-5.4335,-5.4251,-5.4256,-5.4438,-5.4441,-5.432,-5.4646,-5.4492,-5.4519,-5.4638,-5.4684,-5.472,-5.4717,-5.4139,0,0,0,0,0,-5.3892,-5.4091,-5.4033,-5.4059,-5.417,-5.4291,-5.4305,-5.424,-5.4131,-5.4223,-5.4206,-5.4108,-5.4357,-5.4248,-5.4276,-5.4412,-5.4664,-5.4685,-5.4706,-5.491,-5.4959,-5.5,0,0,0,0,0,0,-5.3902,-5.3934,-5.4027,-5.4031,-5.4055,-5.4283,-5.4086,-5.4073,-5.412,-5.4099,-5.4115,-5.4109,-5.4056,-5.423,-5.4256,-5.4387,-5.413,-5.4672,-5.4691,-5.4707,-5.4927,-5.4967,-5.5001,0,0,0,0,0,-5.3909,-5.3935,-5.4131,-5.4028,-5.4049,-5.401,-5.4078,-5.4066,-5.41,-5.4075,-5.4066,-5.4047,-5.4061,-5.4078,-5.4245,-5.4377,-5.4112,-5.4122,-5.4684,-5.4699,-5.4712,-5.4947,0,0,0,0,0,0,-5.3914,-5.3925,-5.4134,-5.4138,-5.3948,-5.3995,-5.4,-5.406,-5.4072,-5.4066,-5.4002,-5.3986,-5.4068,-5.408,-5.4094,-5.4377,-5.4097,-5.4107,-5.4113,-5.4695,-5.4707,-5.4717,0,0,0,0,0,0,-5.391,-5.393,-5.4136,-5.4039,-5.4031,-5.3983,-5.3988,-5.4119,-5.4074,-5.3998,-5.3985,-5.3995,-5.4047,-5.4082,-5.4092,-5.4301,-5.4085,-5.4095,-5.4102,-5.4106,-5.4704,-5.4713,0,0,0,0,0,0,-5.3917,-5.3933,-5.4037,-5.4031,-5.4024,-5.4063,-5.4098,-5.4216,-5.3991,-5.4,-5.3969,-5.3959,-5.4052,-5.406,-5.4092,-5.4297,-5.43,-5.4086,-5.4092,-5.4097,-5.41,0,0,0,0,0,0,0,-5.3923,-5.383,-5.4111,-5.4025,-5.4018,-5.4175,-5.4176,-5.4177,-5.3989,-5.398,-5.3971,-5.3963,-5.403,-5.4041,-5.4052,-5.4294,0,0,-5.4085,-5.4089,0,0,0,0,0,0,0,0,-5.3821,-5.3828,-5.4111,-5.4111,-5.4112,-5.4175,-5.4176,-5.4177,-5.3987,-5.398,-5.3973,-5.3966,-5.4033,-5.4042,-5.405,0,0,0,0,0,0,0,0,0,0,0,0,0,0,0,-5.4111,-5.4111,0,-5.4175,-5.4176,-5.4176,-5.3986,-5.398,-5.3974,-5.3969,-5.4036,-5.4043,-5.405,0,0,0,0,0,0,0,0,0,0,0,0,0,0,0,0,0,0,0,0,0,0,0,0,0,0,0,0,0,0,0,0,0,0,0,0,0,0,0,0,0,0,0,0,0,0,0,0,0,0,0,0,0,0,0,0,0,0,0,0,0,0,0,0,0,0,0,0,0]}],[{"header":{"parameterUnit":"kt","parameterCategory":2,"dx":1,"dy":1,"la1":30.253999710083008,"la2":30.299108505249023,"lo1":-89.0895004272461,"lo2":-89.04439544677734,"nx":28,"ny":28,"refTime":"2022-09-28T21:00:00:Z","depth":0,"parameterNumber":2,"parameterNumberName":"V-component_of_WINDS"},"data":[-15.9438,-15.9684,-15.9659,-15.9925,-15.9947,-16.0122,-16.0176,-16.0242,-16.0286,-16.0489,-16.06,-16.0595,-16.0624,-16.0746,-16.086,-16.0854,-16.0903,-16.101,-16.0984,-16.0537,-16.0473,-16.0412,-16.0352,-16.1022,-16.1023,-16.1449,-16.1453,-16.1456,-15.911,-15.9136,-15.9271,-15.9383,-15.9496,-15.9378,-15.9456,-15.9557,-15.9716,-15.9773,-15.9881,-16.0055,-16.0187,-16.018,-16.0301,-16.0409,-16.0358,-16.0444,-16.0433,-16.0439,-15.9961,-15.9899,-16.0483,-16.0483,-16.0483,-16.0483,-16.0483,-16.0483,-15.8506,-15.8656,-15.8708,-15.8854,-15.8902,-15.8977,-15.9112,-15.9104,-15.9231,-15.9359,-15.9299,-15.9477,-15.9524,-15.9655,-15.969,-15.9824,-15.9722,-15.9806,-15.9826,-15.9847,-15.9875,-15.926,-15.9843,-15.9842,-15.984,-15.9839,-15.9837,0,-15.8054,-15.8023,-15.815,-15.8271,-15.8374,-15.8463,-15.8539,-15.8622,-15.8539,-15.8648,-15.8802,-15.8885,-15.9047,-15.9185,-15.9291,-15.9309,-15.9191,-15.9177,-15.9234,-15.9264,-15.9278,-15.927,-15.849,-15.916,-15.9154,-15.9149,-15.9146,-15.9144,-15.744,-15.7618,-15.766,-15.7753,-15.7788,-15.7939,-15.8022,-15.7936,-15.8027,-15.8105,-15.8238,-15.8377,-15.8483,-15.873,-15.8712,-15.8831,-15.8774,-15.9033,-15.8791,-15.8814,-15.8774,-15.8763,-15.8778,-15.9081,-15.9089,-15.9095,-15.9101,0,-15.7095,-15.7051,-15.7317,-15.7339,-15.735,-15.754,-15.7556,-15.7699,-15.7673,-15.7866,-15.7906,-15.7864,-15.8015,-15.7954,-15.8113,-15.8076,-15.8379,-15.8322,-15.8361,-15.8345,-15.8568,-15.8547,-15.9309,-15.9402,-15.871,-15.8717,-15.8722,0,-15.6551,-15.6788,-15.6706,-15.6864,-15.7122,-15.7029,-15.7287,-15.729,-15.7331,-15.7482,-15.7341,-15.7484,-15.7384,-15.7519,-15.7465,-15.7701,-15.7732,-15.7716,-15.7698,-15.7728,-15.7729,-15.777,-15.7736,-15.7655,-15.7651,-15.7648,-15.7645,0,-15.6014,-15.6249,-15.6504,-15.655,-15.6596,-15.6717,-15.6741,-15.6786,-15.6867,-15.6963,-15.7013,-15.7131,-15.7195,-15.7286,-15.7216,-15.7053,-15.7505,-15.7267,-15.7488,-15.749,-15.7589,-15.7583,-15.8276,-15.764,-15.7639,-15.7638,-15.7636,0,-15.5566,-15.567,-15.6049,-15.6082,-15.6146,-15.6315,-15.6425,-15.6555,-15.6612,-15.6589,-15.6663,-15.656,-15.6765,-15.6533,-15.6811,-15.662,-15.6689,-15.6693,-15.6708,-15.672,-15.6461,-15.6856,-15.7525,-15.7591,-15.6734,-15.6726,-15.672,0,-15.4962,-15.5332,-15.5255,-15.5616,-15.5778,-15.5608,-15.5791,-15.5847,-15.5832,-15.5963,-15.5944,-15.6095,-15.591,-15.5947,-15.6094,-15.6079,-15.6328,-15.6044,-15.6227,-15.6235,-15.6215,-15.6831,-15.6944,-15.7386,-15.6623,-15.6633,-15.664,0,-15.4487,-15.4544,-15.4615,-15.4661,-15.4723,-15.4857,-15.507,-15.5199,-15.5291,-15.537,-15.5542,-15.5753,-15.562,-15.5685,-15.5613,-15.5769,-15.6157,-15.5604,-15.5604,-15.5703,-15.657,-15.6676,-15.6751,-15.6073,-15.6085,-15.6094,-15.6563,0,-15.3815,-15.3995,-15.4183,-15.4294,-15.4389,-15.4612,-15.455,-15.4656,-15.4578,-15.4556,-15.481,-15.4839,-15.4968,-15.5037,-15.4962,-15.5339,-15.5265,-15.5122,-15.4889,-15.5295,-15.5447,-15.551,-15.4667,-15.466,-15.4654,-15.4649,0,0,-15.3246,-15.3502,-15.3411,-15.3615,-15.3689,-15.3508,-15.3752,-15.3802,-15.3909,-15.3962,-15.3832,-15.4134,-15.4163,-15.4476,-15.4598,-15.4652,-15.4711,-15.4573,-15.5103,-15.5154,-15.5201,-15.5366,-15.5432,-15.4638,-15.4636,-15.4633,-15.4632,0,-15.2987,-15.3028,-15.3272,-15.3321,-15.339,-15.3356,-15.3415,-15.3449,-15.3447,-15.3696,-15.354,-15.3684,-15.393,-15.3979,-15.4036,-15.4534,-15.4406,-15.4579,-15.4867,-15.5044,-15.5103,-15.5155,-15.5329,-15.5394,-15.4617,-15.4618,-15.4618,0,-15.2506,-15.2534,-15.2646,-15.2809,-15.2852,-15.3023,-15.2764,-15.2957,-15.3081,-15.2869,-15.3119,-15.3127,-15.3188,-15.3495,-15.3629,-15.3514,-15.4131,-15.3926,-15.3963,-15.3975,-15.4143,-15.4214,-15.4278,-15.3442,-15.3438,-15.3434,0,0,-15.229,-15.2457,-15.2459,-15.2749,-15.2787,-15.274,-15.2824,-15.2754,-15.2816,-15.2842,-15.2848,-15.2911,-15.305,-15.3145,-15.3274,-15.362,-15.3623,-15.3784,-15.384,-15.3885,-15.3923,-15.4102,-15.4173,-15.342,-15.342,-15.3419,0,0,-15.2185,-15.2199,-15.211,-15.244,-15.2506,-15.2523,-15.2701,-15.2591,-15.2701,-15.2667,-15.2555,-15.2567,-15.2852,-15.2865,-15.268,-15.3188,-15.2959,-15.3002,-15.3169,-15.3239,-15.3293,-15.3282,-15.2415,0,0,0,0,0,-15.1888,-15.2197,-15.2117,-15.2162,-15.2366,-15.2569,-15.2594,-15.251,-15.2349,-15.2492,-15.2479,-15.2337,-15.2741,-15.2575,-15.262,-15.2827,-15.3234,-15.3267,-15.3298,-15.3594,-15.3667,-15.3729,0,0,0,0,0,0,-15.1906,-15.1963,-15.2108,-15.2141,-15.2185,-15.2557,-15.2266,-15.2251,-15.2332,-15.2302,-15.2344,-15.2339,-15.2269,-15.2545,-15.2588,-15.2786,-15.2401,-15.3247,-15.3275,-15.33,-15.3619,-15.3679,-15.373,0,0,0,0,0,-15.1919,-15.1964,-15.2315,-15.2135,-15.2174,-15.2137,-15.2254,-15.2239,-15.2299,-15.2281,-15.227,-15.2229,-15.2277,-15.2306,-15.257,-15.2769,-15.2371,-15.2387,-15.3265,-15.3287,-15.3307,-15.3649,0,0,0,0,0,0,-15.1929,-15.1951,-15.232,-15.2329,-15.2013,-15.2114,-15.2128,-15.2229,-15.2271,-15.2265,-15.2158,-15.2134,-15.2287,-15.2307,-15.2331,-15.2768,-15.2347,-15.2363,-15.2373,-15.3282,-15.3299,-15.3314,0,0,0,0,0,0,-15.1926,-15.196,-15.2325,-15.2175,-15.2165,-15.2094,-15.2106,-15.2317,-15.2274,-15.2146,-15.2126,-15.2147,-15.2249,-15.231,-15.2327,-15.2661,-15.2328,-15.2344,-15.2354,-15.2361,-15.3296,-15.3309,0,0,0,0,0,0,-15.1939,-15.1968,-15.2172,-15.2165,-15.2156,-15.2245,-15.2278,-15.2491,-15.2149,-15.2147,-15.2116,-15.2101,-15.2256,-15.2272,-15.2326,-15.2653,-15.2659,-15.2328,-15.2339,-15.2347,-15.2352,0,0,0,0,0,0,0,-15.1949,-15.1775,-15.227,-15.2157,-15.2148,-15.2408,-15.241,-15.2413,-15.2146,-15.2133,-15.2119,-15.2107,-15.2239,-15.2256,-15.2273,-15.2647,0,0,-15.2327,-15.2335,0,0,0,0,0,0,0,0,-15.1761,-15.1772,-15.227,-15.2272,-15.2274,-15.2408,-15.241,-15.2412,-15.2144,-15.2133,-15.2122,-15.2112,-15.2243,-15.2257,-15.2271,0,0,0,0,0,0,0,0,0,0,0,0,0,0,0,-15.2271,-15.2272,0,-15.2409,-15.241,-15.2412,-15.2142,-15.2133,-15.2125,-15.2116,-15.2247,-15.2259,-15.227,0,0,0,0,0,0,0,0,0,0,0,0,0,0,0,0,0,0,0,0,0,0,0,0,0,0,0,0,0,0,0,0,0,0,0,0,0,0,0,0,0,0,0,0,0,0,0,0,0,0,0,0,0,0,0,0,0,0,0,0,0,0,0,0,0,0,0,0,0]}]]]